TimeEST,TemperatureF,Dew PointF,Humidity,Sea Level PressureIn,VisibilityMPH,Wind Direction,Wind SpeedMPH,Gust SpeedMPH,PrecipitationIn,Events,Conditions,WindDirDegrees,DateUTC
12:51 AM,48.0,42.1,80,30.09,9.0,North,4.6,-,N/A,,Clear,10,2012-11-21 05:51:00
1:51 AM,44.1,41.0,89,30.09,8.0,Calm,Calm,-,N/A,,Clear,0,2012-11-21 06:51:00
2:51 AM,43.0,41.0,93,30.09,7.0,Calm,Calm,-,N/A,,Partly Cloudy,0,2012-11-21 07:51:00
3:51 AM,43.0,41.0,93,30.09,7.0,Calm,Calm,-,N/A,,Clear,0,2012-11-21 08:51:00
4:51 AM,42.1,39.9,92,30.10,5.0,WNW,3.5,-,N/A,,Scattered Clouds,290,2012-11-21 09:51:00
5:51 AM,39.9,39.0,97,30.12,4.0,WNW,3.5,-,N/A,,Clear,290,2012-11-21 10:51:00
6:51 AM,41.0,39.9,96,30.12,5.0,Calm,Calm,-,N/A,,Clear,0,2012-11-21 11:51:00
7:51 AM,42.1,41.0,96,30.14,3.0,Calm,Calm,-,N/A,,Clear,0,2012-11-21 12:51:00
8:51 AM,52.0,46.0,80,30.16,8.0,NE,4.6,-,N/A,,Clear,50,2012-11-21 13:51:00
9:51 AM,59.0,46.9,64,30.17,10.0,Calm,Calm,-,N/A,,Scattered Clouds,0,2012-11-21 14:51:00
10:51 AM,63.0,45.0,52,30.17,10.0,NE,4.6,-,N/A,,Partly Cloudy,40,2012-11-21 15:51:00
11:51 AM,64.4,39.2,40,30.15,10.0,ESE,6.9,-,N/A,,Clear,110,2012-11-21 16:51:00
12:51 PM,66.2,39.2,37,30.13,10.0,Calm,Calm,-,N/A,,Clear,0,2012-11-21 17:51:00
1:51 PM,68.0,41.0,37,30.12,10.0,Variable,3.5,-,N/A,,Clear,0,2012-11-21 18:51:00
2:51 PM,68.0,39.9,36,30.11,10.0,Calm,Calm,-,N/A,,Clear,0,2012-11-21 19:51:00
3:51 PM,69.1,39.9,35,30.11,10.0,Calm,Calm,-,N/A,,Clear,0,2012-11-21 20:51:00
4:51 PM,66.0,41.0,40,30.11,10.0,Calm,Calm,-,N/A,,Clear,0,2012-11-21 21:51:00
5:51 PM,59.0,41.0,51,30.13,10.0,Calm,Calm,-,N/A,,Clear,0,2012-11-21 22:51:00
6:51 PM,55.0,42.1,62,30.14,10.0,Calm,Calm,-,N/A,,Clear,0,2012-11-21 23:51:00
7:51 PM,54.0,42.1,64,30.15,10.0,Calm,Calm,-,N/A,,Clear,0,2012-11-22 00:51:00
8:51 PM,51.1,41.0,68,30.15,10.0,East,3.5,-,N/A,,Clear,90,2012-11-22 01:51:00
9:51 PM,50.0,39.9,68,30.16,10.0,Calm,Calm,-,N/A,,Partly Cloudy,0,2012-11-22 02:51:00
10:51 PM,48.0,39.0,71,30.17,10.0,East,4.6,-,N/A,,Clear,80,2012-11-22 03:51:00
11:51 PM,46.9,39.0,74,30.17,10.0,Calm,Calm,-,N/A,,Clear,0,2012-11-22 04:51:00